16-01-2023, 00:00:01,    138,    0.0,    0.7,   0.00,   0.00,  988.3,   90.6, -999.0
16-01-2023, 00:00:11,    138,    0.0,    0.7,   0.00,   0.00,  988.3,   91.4, -999.0
16-01-2023, 00:00:21,    138,    0.0,    0.7,   0.00,   0.00,  988.3,   92.0, -999.0
16-01-2023, 00:00:31,    138,    0.0,    0.6,   0.00,   0.00,  988.3,   92.7, -999.0
16-01-2023, 00:00:41,    138,    0.0,    0.6,   0.00,   0.00,  988.3,   93.1, -999.0
16-01-2023, 00:00:51,    138,    0.0,    0.6,   0.00,   0.00,  988.3,   93.6, -999.0
16-01-2023, 00:01:01,    138,    0.0,    0.6,   0.00,   0.00,  988.3,   94.1, -999.0
16-01-2023, 00:01:11,    138,    0.0,    0.6,   0.00,   0.00,  988.3,   94.6, -999.0
16-01-2023, 00:01:21,    138,    0.0,    0.6,   0.00,   0.00,  988.3,   95.3, -999.0
16-01-2023, 00:01:31,    138,    0.0,    0.6,   0.00,   0.00,  988.3,   96.3, -999.0
16-01-2023, 00:01:41,    138,    0.0,    0.6,   0.00,   0.00,  988.3,   97.3, -999.0
16-01-2023, 00:01:51,    138,    0.0,    0.6,   0.00,   0.00,  988.3,   98.3, -999.0
16-01-2023, 00:02:01,    138,    0.0,    0.5,   0.00,   0.00,  988.3,   98.5, -999.0
16-01-2023, 00:02:11,    138,    0.0,    0.5,   0.00,   0.00,  988.3,   98.6, -999.0
16-01-2023, 00:02:21,    138,    0.0,    0.6,   0.00,   0.00,  988.3,   98.6, -999.0
16-01-2023, 00:02:31,    137,    0.0,    0.5,   0.00,   0.00,  988.3,   98.6, -999.0
16-01-2023, 00:02:41,    138,    0.0,    0.5,   0.00,   0.00,  988.3,   98.6, -999.0
16-01-2023, 00:02:51,    138,    0.0,    0.6,   0.00,   0.00,  988.3,   98.6, -999.0
16-01-2023, 00:03:01,    138,    0.0,    0.6,   0.00,   0.00,  988.3,   98.7, -999.0
16-01-2023, 00:03:11,    138,    0.0,    0.6,   0.00,   0.00,  988.3,   98.6, -999.0
16-01-2023, 00:03:21,    138,    0.0,    0.6,   0.00,   0.00,  988.3,   98.6, -999.0
16-01-2023, 00:03:31,    138,    0.0,    0.6,   0.00,   0.00,  988.3,   98.5, -999.0
16-01-2023, 00:03:41,    138,    0.0,    0.6,   0.00,   0.00,  988.3,   98.5, -999.0
16-01-2023, 00:03:51,    137,    0.0,    0.6,   0.00,   0.00,  988.3,   98.6, -999.0
16-01-2023, 00:04:01,    138,    0.0,    0.5,   0.00,   0.00,  988.3,   98.6, -999.0
16-01-2023, 00:04:11,    138,    0.0,    0.6,   0.00,   0.00,  988.3,   98.6, -999.0
16-01-2023, 00:04:21,    138,    0.0,    0.6,   0.00,   0.00,  988.3,   98.6, -999.0
16-01-2023, 00:04:31,    138,    0.0,    0.5,   0.00,   0.00,  988.3,   98.6, -999.0
16-01-2023, 00:04:41,    138,    0.0,    0.6,   0.00,   0.00,  988.3,   98.6, -999.0
16-01-2023, 00:04:51,    138,    0.0,    0.6,   0.00,   0.00,  988.3,   98.6, -999.0
16-01-2023, 00:05:01,    138,    0.0,    0.6,   0.00,   0.00,  988.3,   98.6, -999.0
16-01-2023, 00:05:11,    138,    0.0,    0.6,   0.00,   0.00,  988.3,   98.7, -999.0
16-01-2023, 00:05:21,    138,    0.0,    0.6,   0.00,   0.00,  988.3,   98.6, -999.0
16-01-2023, 00:05:31,    138,    0.0,    0.5,   0.00,   0.00,  988.3,   98.6, -999.0
16-01-2023, 00:05:41,    137,    0.0,    0.5,   0.00,   0.00,  988.3,   98.6, -999.0
16-01-2023, 00:05:51,    138,    0.0,    0.5,   0.00,   0.00,  988.3,   98.6, -999.0
16-01-2023, 00:06:01,    137,    0.0,    0.6,   0.00,   0.00,  988.3,   98.6, -999.0
16-01-2023, 00:06:11,    138,    0.0,    0.6,   0.00,   0.00,  988.3,   98.6, -999.0
16-01-2023, 00:06:20,    138,    0.0,    0.5,   0.00,   0.00,  988.3,   98.5, -999.0
16-01-2023, 00:06:31,    138,    0.0,    0.5,   0.00,   0.00,  988.3,   98.6, -999.0
16-01-2023, 00:06:41,    138,    0.0,    0.5,   0.00,   0.00,  988.3,   98.6, -999.0
16-01-2023, 00:06:51,    138,    0.0,    0.6,   0.00,   0.00,  988.3,   98.6, -999.0
16-01-2023, 00:07:00,    138,    0.0,    0.6,   0.00,   0.00,  988.3,   98.6, -999.0
16-01-2023, 00:07:11,    138,    0.0,    0.6,   0.00,   0.00,  988.2,   98.6, -999.0
16-01-2023, 00:07:21,    138,    0.0,    0.6,   0.00,   0.00,  988.3,   98.6, -999.0
16-01-2023, 00:07:30,    138,    0.0,    0.6,   0.00,   0.00,  988.3,   98.6, -999.0
16-01-2023, 00:07:40,    138,    0.0,    0.6,   0.00,   0.00,  988.3,   98.6, -999.0
16-01-2023, 00:07:51,    138,    0.0,    0.5,   0.00,   0.00,  988.2,   98.6, -999.0
16-01-2023, 00:08:01,    138,    0.0,    0.6,   0.00,   0.00,  988.2,   98.6, -999.0
16-01-2023, 00:08:10,    138,    0.0,    0.5,   0.00,   0.00,  988.2,   98.5, -999.0
16-01-2023, 00:08:20,    138,    0.0,    0.5,   0.00,   0.00,  988.2,   98.5, -999.0
16-01-2023, 00:08:31,    138,    0.0,    0.6,   0.00,   0.00,  988.2,   98.6, -999.0
16-01-2023, 00:08:40,    138,    0.0,    0.6,   0.00,   0.00,  988.2,   98.6, -999.0
16-01-2023, 00:08:50,    138,    0.0,    0.5,   0.00,   0.00,  988.2,   98.6, -999.0
16-01-2023, 00:09:00,    138,    0.0,    0.5,   0.00,   0.00,  988.2,   98.6, -999.0
16-01-2023, 00:09:11,    138,    0.0,    0.5,   0.00,   0.00,  988.2,   98.6, -999.0
16-01-2023, 00:09:20,    138,    0.0,    0.5,   0.00,   0.00,  988.2,   98.6, -999.0
16-01-2023, 00:09:30,    138,    0.0,    0.5,   0.00,   0.00,  988.1,   98.6, -999.0
16-01-2023, 00:09:40,    138,    0.0,    0.5,   0.00,   0.00,  988.2,   98.6, -999.0
16-01-2023, 00:09:50,    138,    0.0,    0.5,   0.00,   0.00,  988.2,   98.6, -999.0
16-01-2023, 00:10:00,    138,    0.0,    0.5,   0.00,   0.00,  988.1,   98.6, -999.0
16-01-2023, 00:10:10,    138,    0.0,    0.5,   0.00,   0.00,  988.1,   98.5, -999.0
16-01-2023, 00:10:20,    138,    0.0,    0.5,   0.00,   0.00,  988.1,   98.6, -999.0
16-01-2023, 00:10:30,    138,    0.0,    0.5,   0.00,   0.00,  988.1,   98.6, -999.0
16-01-2023, 00:10:40,    138,    0.0,    0.5,   0.00,   0.00,  988.1,   98.6, -999.0
16-01-2023, 00:10:50,    138,    0.0,    0.5,   0.00,   0.00,  988.1,   98.6, -999.0
16-01-2023, 00:11:00,    138,    0.0,    0.5,   0.00,   0.00,  988.1,   98.6, -999.0
16-01-2023, 00:11:10,    138,    0.0,    0.5,   0.00,   0.00,  988.1,    3.5, -999.0
16-01-2023, 00:11:20,    138,    0.0,    0.5,   0.00,   0.00,  988.1,    0.0, -999.0
16-01-2023, 00:11:30,    138,    0.0,    0.4,   0.00,   0.00,  988.1,    0.2, -999.0
16-01-2023, 00:11:40,    138,    0.0,    0.5,   0.00,   0.00,  988.1,    0.1, -999.0
16-01-2023, 00:11:50,    138,    0.0,    0.5,   0.00,   0.00,  988.1,    0.2, -999.0
16-01-2023, 00:12:00,    138,    0.0,    0.6,   0.00,   0.00,  988.1,    0.1, -999.0
16-01-2023, 00:12:10,    138,    0.0,    0.4,   0.00,   0.00,  988.1,    0.1, -999.0
16-01-2023, 00:12:20,    138,    0.0,    0.5,   0.00,   0.00,  988.1,    0.1, -999.0
16-01-2023, 00:12:30,    138,    0.0,    0.5,   0.00,   0.00,  988.1,    0.1, -999.0
16-01-2023, 00:12:40,    138,    0.0,    0.5,   0.00,   0.00,  988.1,    0.2, -999.0
16-01-2023, 00:12:50,    138,    0.0,    0.5,   0.00,   0.00,  988.1,    0.0, -999.0
16-01-2023, 00:13:00,    138,    0.0,    0.5,   0.00,   0.00,  988.1,    0.1, -999.0
16-01-2023, 00:13:10,    138,    0.0,    0.5,   0.00,   0.00,  988.1,    0.1, -999.0
16-01-2023, 00:13:20,    138,    0.0,    0.5,   0.00,   0.00,  988.1,    0.0, -999.0
16-01-2023, 00:13:30,    138,    0.0,    0.5,   0.00,   0.00,  988.1,    0.0, -999.0
16-01-2023, 00:13:40,    138,    0.0,    0.5,   0.00,   0.00,  988.1,    0.1, -999.0
16-01-2023, 00:13:50,    138,    0.0,    0.5,   0.00,   0.00,  988.1,    0.1, -999.0
16-01-2023, 00:14:00,    138,    0.0,    0.5,   0.00,   0.00,  988.1,    0.0, -999.0
16-01-2023, 00:14:10,    137,    0.0,    0.4,   0.00,   0.00,  988.1,    0.2, -999.0
16-01-2023, 00:14:20,    138,    0.0,    0.4,   0.00,   0.00,  988.1,    0.1, -999.0
16-01-2023, 00:14:30,    138,    0.0,    0.4,   0.00,   0.00,  988.1,    0.1, -999.0
16-01-2023, 00:14:40,    138,    0.0,    0.5,   0.00,   0.00,  988.1,    0.3, -999.0
16-01-2023, 00:14:50,    138,    0.0,    0.5,   0.00,   0.00,  988.1,    0.1, -999.0
16-01-2023, 00:15:00,    138,    0.0,    0.4,   0.00,   0.00,  988.0,    0.1, -999.0
16-01-2023, 00:15:10,    138,    0.0,    0.4,   0.00,   0.00,  988.0,    0.1, -999.0
16-01-2023, 00:15:20,    138,    0.0,    0.4,   0.00,   0.00,  988.0,    0.1, -999.0
16-01-2023, 00:15:30,    138,    0.0,    0.4,   0.00,   0.00,  988.0,    0.3, -999.0
16-01-2023, 00:15:40,    138,    0.0,    0.4,   0.00,   0.00,  988.0,    0.2, -999.0
16-01-2023, 00:15:50,    138,    0.0,    0.4,   0.00,   0.00,  987.9,    0.1, -999.0
16-01-2023, 00:16:00,    138,    0.0,    0.5,   0.00,   0.00,  987.9,    0.0, -999.0
16-01-2023, 00:16:10,    138,    0.0,    0.5,   0.00,   0.00,  987.9,    0.1, -999.0
16-01-2023, 00:16:20,    138,    0.0,    0.5,   0.00,   0.00,  987.9,    0.2, -999.0
16-01-2023, 00:16:30,    138,    0.0,    0.4,   0.00,   0.00,  987.9,    0.1, -999.0
16-01-2023, 00:16:40,    138,    0.0,    0.5,   0.00,   0.00,  987.9,    0.1, -999.0
16-01-2023, 00:16:49,    138,    0.0,    0.5,   0.00,   0.00,  988.0,    0.1, -999.0
16-01-2023, 00:17:00,    138,    0.0,    0.5,   0.00,   0.00,  987.9,    0.1, -999.0
16-01-2023, 00:17:10,    138,    0.0,    0.6,   0.00,   0.00,  987.9,    0.1, -999.0
16-01-2023, 00:17:20,    138,    0.0,    0.6,   0.00,   0.00,  987.9,    0.0, -999.0
16-01-2023, 00:17:29,    138,    0.0,    0.5,   0.00,   0.00,  987.9,    0.1, -999.0
16-01-2023, 00:17:40,    138,    0.0,    0.5,   0.00,   0.00,  987.9,    0.1, -999.0
16-01-2023, 00:17:50,    138,    0.0,    0.4,   0.00,   0.00,  987.9,    0.1, -999.0
16-01-2023, 00:17:59,    138,    0.0,    0.5,   0.00,   0.00,  987.9,    0.3, -999.0
16-01-2023, 00:18:09,    138,    0.0,    0.5,   0.00,   0.00,  987.9,    0.3, -999.0
16-01-2023, 00:18:20,    138,    0.0,    0.5,   0.00,   0.00,  987.9,    0.0, -999.0
16-01-2023, 00:18:30,    138,    0.0,    0.5,   0.00,   0.00,  987.9,    0.0, -999.0
16-01-2023, 00:18:39,    138,    0.0,    0.5,   0.00,   0.00,  987.9,    0.2, -999.0
16-01-2023, 00:18:49,    138,    0.0,    0.5,   0.00,   0.00,  987.9,    0.1, -999.0
16-01-2023, 00:19:00,    138,    0.0,    0.5,   0.00,   0.00,  987.9,    0.2, -999.0
16-01-2023, 00:19:09,    138,    0.0,    0.5,   0.00,   0.00,  987.9,    0.1, -999.0
16-01-2023, 00:19:19,    138,    0.0,    0.5,   0.00,   0.00,  987.9,    0.1, -999.0
16-01-2023, 00:19:29,    138,    0.0,    0.5,   0.00,   0.00,  987.9,    0.2, -999.0
16-01-2023, 00:19:40,    138,    0.0,    0.4,   0.00,   0.00,  987.9,    0.1, -999.0
16-01-2023, 00:19:49,    138,    0.0,    0.4,   0.00,   0.00,  987.9,    0.1, -999.0
16-01-2023, 00:19:59,    138,    0.0,    0.4,   0.00,   0.00,  987.9,    0.2, -999.0
16-01-2023, 00:20:09,    138,    0.0,    0.4,   0.00,   0.00,  987.9,    0.2, -999.0
16-01-2023, 00:20:19,    138,    0.0,    0.4,   0.00,   0.00,  987.9,    0.0, -999.0
16-01-2023, 00:20:29,    138,    0.0,    0.4,   0.00,   0.00,  987.9,    0.1, -999.0
16-01-2023, 00:20:39,    138,    0.0,    0.4,   0.00,   0.00,  987.9,    0.2, -999.0
16-01-2023, 00:20:49,    138,    0.0,    0.5,   0.00,   0.00,  987.9,    0.1, -999.0
16-01-2023, 00:20:59,    138,    0.0,    0.3,   0.00,   0.00,  987.9,    0.3, -999.0
16-01-2023, 00:21:09,    138,    0.0,    0.4,   0.00,   0.00,  987.9,    0.0, -999.0
16-01-2023, 00:21:19,    138,    0.0,    0.4,   0.00,   0.00,  987.9,    0.0, -999.0
16-01-2023, 00:21:29,    138,    0.0,    0.4,   0.00,   0.00,  987.8,    0.2, -999.0
16-01-2023, 00:21:39,    138,    0.0,    0.5,   0.00,   0.00,  987.9,    0.0, -999.0
16-01-2023, 00:21:49,    138,    0.0,    0.5,   0.00,   0.00,  987.9,    0.1, -999.0
16-01-2023, 00:21:59,    138,    0.0,    0.5,   0.00,   0.00,  987.8,    0.1, -999.0
16-01-2023, 00:22:09,    138,    0.0,    0.4,   0.00,   0.00,  987.9,    0.1, -999.0
16-01-2023, 00:22:19,    138,    0.0,    0.4,   0.00,   0.00,  987.9,    0.2, -999.0
16-01-2023, 00:22:29,    138,    0.0,    0.4,   0.00,   0.00,  987.9,    0.3, -999.0
16-01-2023, 00:22:39,    138,    0.0,    0.4,   0.00,   0.00,  987.9,    0.2, -999.0
16-01-2023, 00:22:49,    138,    0.0,    0.4,   0.00,   0.00,  987.9,    0.2, -999.0
16-01-2023, 00:22:59,    138,    0.0,    0.5,   0.00,   0.00,  987.8,    0.1, -999.0
16-01-2023, 00:23:09,    138,    0.0,    0.4,   0.00,   0.00,  987.8,    0.2, -999.0
16-01-2023, 00:23:19,    138,    0.0,    0.4,   0.00,   0.00,  987.8,    0.1, -999.0
16-01-2023, 00:23:29,    138,    0.0,    0.4,   0.00,   0.00,  987.8,    0.0, -999.0
16-01-2023, 00:23:39,    138,    0.0,    0.4,   0.00,   0.00,  987.8,    0.1, -999.0
16-01-2023, 00:23:49,    138,    0.0,    0.4,   0.00,   0.00,  987.8,    0.0, -999.0
16-01-2023, 00:23:59,    138,    0.0,    0.4,   0.00,   0.00,  987.7,    0.0, -999.0
16-01-2023, 00:24:09,    138,    0.0,    0.4,   0.00,   0.00,  987.8,    0.0, -999.0
16-01-2023, 00:24:19,    138,    0.0,    0.3,   0.00,   0.00,  987.8,    0.0, -999.0
16-01-2023, 00:24:29,    138,    0.0,    0.4,   0.00,   0.00,  987.7,    0.0, -999.0
16-01-2023, 00:24:39,    138,    0.0,    0.4,   0.00,   0.00,  987.8,    0.1, -999.0
16-01-2023, 00:24:49,    138,    0.0,    0.5,   0.00,   0.00,  987.7,    0.3, -999.0
16-01-2023, 00:24:59,    138,    0.0,    0.5,   0.00,   0.00,  987.7,    0.5, -999.0
16-01-2023, 00:25:09,    138,    0.0,    0.4,   0.00,   0.00,  987.7,    0.3, -999.0
16-01-2023, 00:25:19,    138,    0.0,    0.4,   0.00,   0.00,  987.8,    0.1, -999.0
16-01-2023, 00:25:29,    138,    0.0,    0.4,   0.00,   0.00,  987.8,    0.1, -999.0
16-01-2023, 00:25:39,    138,    0.0,    0.5,   0.00,   0.00,  987.8,    0.1, -999.0
16-01-2023, 00:25:49,    138,    0.0,    0.4,   0.00,   0.00,  987.7,    0.0, -999.0
16-01-2023, 00:25:59,    138,    0.0,    0.4,   0.00,   0.00,  987.7,    0.1, -999.0
16-01-2023, 00:26:09,    138,    0.0,    0.4,   0.00,   0.00,  987.7,    0.0, -999.0
16-01-2023, 00:26:19,    138,    0.0,    0.4,   0.00,   0.00,  987.7,    0.1, -999.0
16-01-2023, 00:26:29,    138,    0.0,    0.5,   0.00,   0.00,  987.7,    0.1, -999.0
16-01-2023, 00:26:39,    138,    0.0,    0.4,   0.00,   0.00,  987.7,    0.0, -999.0
16-01-2023, 00:26:49,    138,    0.0,    0.5,   0.00,   0.00,  987.7,    0.2, -999.0
16-01-2023, 00:26:59,    138,    0.0,    0.5,   0.00,   0.00,  987.7,    0.1, -999.0
16-01-2023, 00:27:09,    138,    0.0,    0.5,   0.00,   0.00,  987.7,    0.0, -999.0
16-01-2023, 00:27:18,    138,    0.0,    0.5,   0.00,   0.00,  987.7,    0.1, -999.0
16-01-2023, 00:27:29,    138,    0.0,    0.5,   0.00,   0.00,  987.7,    0.1, -999.0
16-01-2023, 00:27:39,    138,    0.0,    0.4,   0.00,   0.00,  987.7,    0.0, -999.0
16-01-2023, 00:27:49,    138,    0.0,    0.4,   0.00,   0.00,  987.7,    0.1, -999.0
16-01-2023, 00:27:58,    138,    0.0,    0.5,   0.00,   0.00,  987.7,    0.0, -999.0
16-01-2023, 00:28:09,    138,    0.0,    0.4,   0.00,   0.00,  987.7,    0.2, -999.0
16-01-2023, 00:28:19,    138,    0.0,    0.6,   0.00,   0.00,  987.7,    0.1, -999.0
16-01-2023, 00:28:28,    138,    0.0,    0.5,   0.00,   0.00,  987.7,    0.1, -999.0
16-01-2023, 00:28:38,    138,    0.0,    0.5,   0.00,   0.00,  987.7,    0.1, -999.0
16-01-2023, 00:28:49,    138,    0.0,    0.4,   0.00,   0.00,  987.7,    0.0, -999.0
16-01-2023, 00:28:59,    138,    0.0,    0.5,   0.00,   0.00,  987.7,    0.1, -999.0
16-01-2023, 00:29:08,    138,    0.0,    0.5,   0.00,   0.00,  987.7,    0.0, -999.0
16-01-2023, 00:29:18,    138,    0.0,    0.5,   0.00,   0.00,  987.7,    0.0, -999.0
16-01-2023, 00:29:29,    137,    0.0,    0.5,   0.00,   0.00,  987.7,    0.1, -999.0
16-01-2023, 00:29:38,    138,    0.0,    0.5,   0.00,   0.00,  987.6,    0.1, -999.0
16-01-2023, 00:29:48,    138,    0.0,    0.5,   0.00,   0.00,  987.7,    0.1, -999.0
16-01-2023, 00:29:58,    138,    0.0,    0.5,   0.00,   0.00,  987.7,    0.2, -999.0
16-01-2023, 00:30:09,    138,    0.0,    0.4,   0.00,   0.00,  987.6,    0.1, -999.0
16-01-2023, 00:30:18,    138,    0.0,    0.5,   0.00,   0.00,  987.7,    0.1, -999.0
16-01-2023, 00:30:28,    138,    0.0,    0.5,   0.00,   0.00,  987.6,    0.1, -999.0
16-01-2023, 00:30:38,    138,    0.0,    0.5,   0.00,   0.00,  987.6,    0.0, -999.0
16-01-2023, 00:30:48,    138,    0.0,    0.5,   0.00,   0.00,  987.6,    0.2, -999.0
16-01-2023, 00:30:58,    138,    0.0,    0.6,   0.00,   0.00,  987.6,    0.0, -999.0
16-01-2023, 00:31:08,    138,    0.0,    0.7,   0.00,   0.00,  987.6,    0.0, -999.0
16-01-2023, 00:31:18,    138,    0.0,    0.7,   0.00,   0.00,  987.7,    0.2, -999.0
16-01-2023, 00:31:28,    138,    0.0,    0.6,   0.00,   0.00,  987.6,    0.2, -999.0
16-01-2023, 00:31:38,    138,    0.0,    0.6,   0.00,   0.00,  987.6,    0.0, -999.0
16-01-2023, 00:31:48,    138,    0.0,    0.6,   0.00,   0.00,  987.6,    0.1, -999.0
16-01-2023, 00:31:58,    138,    0.0,    0.6,   0.00,   0.00,  987.6,    0.1, -999.0
16-01-2023, 00:32:08,    138,    0.0,    0.5,   0.00,   0.00,  987.6,    0.1, -999.0
16-01-2023, 00:32:18,    138,    0.0,    0.5,   0.00,   0.00,  987.6,    0.2, -999.0
16-01-2023, 00:32:28,    138,    0.0,    0.5,   0.00,   0.00,  987.6,    0.0, -999.0
16-01-2023, 00:32:38,    138,    0.0,    0.5,   0.00,   0.00,  987.6,    0.1, -999.0
16-01-2023, 00:32:48,    138,    0.0,    0.6,   0.00,   0.00,  987.6,    0.1, -999.0
16-01-2023, 00:32:58,    138,    0.0,    0.6,   0.00,   0.00,  987.6,    0.2, -999.0
16-01-2023, 00:33:08,    138,    0.0,    0.6,   0.00,   0.00,  987.6,    0.2, -999.0
16-01-2023, 00:33:18,    138,    0.0,    0.6,   0.00,   0.00,  987.6,    0.1, -999.0
16-01-2023, 00:33:28,    138,    0.0,    0.6,   0.00,   0.00,  987.6,    0.1, -999.0
16-01-2023, 00:33:38,    137,    0.0,    0.6,   0.00,   0.00,  987.5,    0.1, -999.0
16-01-2023, 00:33:48,    138,    0.0,    0.6,   0.00,   0.00,  987.5,    0.2, -999.0
16-01-2023, 00:33:58,    138,    0.0,    0.5,   0.00,   0.00,  987.5,    0.0, -999.0
16-01-2023, 00:34:08,    138,    0.0,    0.5,   0.00,   0.00,  987.5,    0.2, -999.0
16-01-2023, 00:34:18,    138,    0.0,    0.5,   0.00,   0.00,  987.5,    0.1, -999.0
16-01-2023, 00:34:28,    138,    0.0,    0.6,   0.00,   0.00,  987.5,    0.2, -999.0
16-01-2023, 00:34:38,    138,    0.0,    0.7,   0.00,   0.00,  987.5,    0.1, -999.0
16-01-2023, 00:34:48,    138,    0.0,    0.7,   0.00,   0.00,  987.5,    0.1, -999.0
16-01-2023, 00:34:58,    138,    0.0,    0.6,   0.00,   0.00,  987.5,    0.1, -999.0
16-01-2023, 00:35:08,     68,    0.1,    0.6,   0.00,   0.00,  987.6,    0.1, -999.0
16-01-2023, 00:35:18,     68,    0.0,    0.5,   0.00,   0.00,  987.5,    0.0, -999.0
16-01-2023, 00:35:28,     68,    0.2,    0.7,   0.00,   0.00,  987.6,    0.1, -999.0
16-01-2023, 00:35:38,     68,    0.5,    0.7,   0.00,   0.00,  987.6,    0.2, -999.0
16-01-2023, 00:35:48,     68,    0.1,    0.7,   0.00,   0.00,  987.6,    0.0, -999.0
16-01-2023, 00:35:58,     68,    0.0,    0.6,   0.00,   0.00,  987.5,    0.1, -999.0
16-01-2023, 00:36:08,     68,    0.0,    0.6,   0.00,   0.00,  987.5,    0.0, -999.0
16-01-2023, 00:36:18,     68,    0.4,    0.6,   0.00,   0.00,  987.6,    0.0, -999.0
16-01-2023, 00:36:28,     33,    1.0,    0.7,   0.00,   0.00,  987.6,    0.2, -999.0
16-01-2023, 00:36:38,     16,    1.3,    0.7,   0.00,   0.00,  987.6,    0.0, -999.0
16-01-2023, 00:36:48,     36,    1.7,    0.6,   0.00,   0.00,  987.6,    0.1, -999.0
16-01-2023, 00:36:58,     36,    0.6,    0.7,   0.00,   0.00,  987.6,    0.1, -999.0
16-01-2023, 00:37:07,     35,    0.0,    0.6,   0.00,   0.00,  987.5,    0.2, -999.0
16-01-2023, 00:37:18,     35,    0.0,    0.6,   0.00,   0.00,  987.5,    0.1, -999.0
16-01-2023, 00:37:28,     36,    0.3,    0.6,   0.00,   0.00,  987.6,    0.1, -999.0
16-01-2023, 00:37:38,     36,    0.0,    0.6,   0.00,   0.00,  987.5,    0.0, -999.0
16-01-2023, 00:37:47,     36,    0.0,    0.6,   0.00,   0.00,  987.5,    0.1, -999.0
16-01-2023, 00:37:58,     36,    0.0,    0.6,   0.00,   0.00,  987.4,    0.1, -999.0
16-01-2023, 00:38:08,     36,    0.0,    0.6,   0.00,   0.00,  987.4,    0.2, -999.0
16-01-2023, 00:38:17,     36,    0.2,    0.6,   0.00,   0.00,  987.5,    0.1, -999.0
16-01-2023, 00:38:27,     36,    0.0,    0.7,   0.00,   0.00,  987.4,    0.1, -999.0
16-01-2023, 00:38:38,     36,    0.0,    0.6,   0.00,   0.00,  987.4,    0.0, -999.0
16-01-2023, 00:38:48,     36,    0.1,    0.6,   0.00,   0.00,  987.5,    0.2, -999.0
16-01-2023, 00:38:57,     36,    0.1,    0.6,   0.00,   0.00,  987.5,    0.1, -999.0
16-01-2023, 00:39:07,     36,    0.0,    0.8,   0.00,   0.00,  987.4,    0.1, -999.0
16-01-2023, 00:39:18,     36,    0.0,    0.7,   0.00,   0.00,  987.4,    0.0, -999.0
16-01-2023, 00:39:27,     36,    0.0,    0.7,   0.00,   0.00,  987.4,    0.1, -999.0
16-01-2023, 00:39:37,     36,    0.0,    0.8,   0.00,   0.00,  987.4,    0.1, -999.0
16-01-2023, 00:39:47,     36,    0.0,    0.8,   0.00,   0.00,  987.4,    0.1, -999.0
16-01-2023, 00:39:58,     35,    0.0,    0.7,   0.00,   0.00,  987.4,    0.2, -999.0
16-01-2023, 00:40:07,     35,    0.0,    0.7,   0.00,   0.00,  987.4,    0.1, -999.0
16-01-2023, 00:40:17,     35,    0.0,    0.7,   0.00,   0.00,  987.4,    0.1, -999.0
16-01-2023, 00:40:28,     36,    0.0,    0.8,   0.00,   0.00,  987.4,    0.1, -999.0
16-01-2023, 00:40:37,     35,    0.0,    0.7,   0.00,   0.00,  987.4,    0.0, -999.0
16-01-2023, 00:40:47,     35,    0.0,    0.6,   0.00,   0.00,  987.4,    0.1, -999.0
16-01-2023, 00:40:57,     35,    0.0,    0.7,   0.00,   0.00,  987.4,    0.1, -999.0
16-01-2023, 00:41:08,     36,    0.3,    0.8,   0.00,   0.00,  987.5,    0.1, -999.0
16-01-2023, 00:41:17,     35,    0.0,    0.7,   0.00,   0.00,  987.4,    0.1, -999.0
16-01-2023, 00:41:27,     35,    0.0,    0.7,   0.00,   0.00,  987.4,    0.0, -999.0
16-01-2023, 00:41:37,     35,    0.0,    0.7,   0.00,   0.00,  987.4,    0.1, -999.0
16-01-2023, 00:41:47,     35,    0.0,    0.8,   0.00,   0.00,  987.4,    0.0, -999.0
16-01-2023, 00:41:57,     35,    0.0,    0.8,   0.00,   0.00,  987.4,    0.3, -999.0
16-01-2023, 00:42:07,     35,    0.0,    0.9,   0.00,   0.00,  987.4,    0.3, -999.0
16-01-2023, 00:42:17,     35,    0.0,    0.8,   0.00,   0.00,  987.4,    0.2, -999.0
16-01-2023, 00:42:27,     35,    0.0,    0.8,   0.00,   0.00,  987.4,    0.0, -999.0
16-01-2023, 00:42:37,     35,    0.2,    0.9,   0.00,   0.00,  987.5,    0.0, -999.0
16-01-2023, 00:42:47,     35,    0.0,    0.8,   0.00,   0.00,  987.4,    0.2, -999.0
16-01-2023, 00:42:57,     35,    0.0,    0.8,   0.00,   0.00,  987.4,    0.1, -999.0
16-01-2023, 00:43:07,     35,    0.1,    0.7,   0.00,   0.00,  987.4,    0.0, -999.0
16-01-2023, 00:43:17,     35,    0.5,    0.9,   0.00,   0.00,  987.4,    0.1, -999.0
16-01-2023, 00:43:27,     35,    0.1,    0.8,   0.00,   0.00,  987.5,    0.2, -999.0
16-01-2023, 00:43:37,     35,    0.3,    0.8,   0.00,   0.00,  987.4,    0.1, -999.0
16-01-2023, 00:43:47,     35,    0.5,    0.8,   0.00,   0.00,  987.5,    0.1, -999.0
16-01-2023, 00:43:57,     36,    0.0,    0.7,   0.00,   0.00,  987.4,    0.3, -999.0
16-01-2023, 00:44:07,     36,    0.3,    0.7,   0.00,   0.00,  987.5,    0.1, -999.0
16-01-2023, 00:44:17,     36,    0.1,    0.7,   0.00,   0.00,  987.4,    0.3, -999.0
16-01-2023, 00:44:27,     36,    0.0,    0.8,   0.00,   0.00,  987.4,    0.3, -999.0
16-01-2023, 00:44:37,     37,    0.0,    0.8,   0.00,   0.00,  987.3,    0.0, -999.0
16-01-2023, 00:44:47,     36,    0.1,    0.9,   0.00,   0.00,  987.4,    0.2, -999.0
16-01-2023, 00:44:57,     36,    0.0,    0.9,   0.00,   0.00,  987.3,    0.1, -999.0
16-01-2023, 00:45:07,     37,    0.0,    0.8,   0.00,   0.00,  987.4,    0.1, -999.0
16-01-2023, 00:45:17,     37,    0.3,    0.8,   0.00,   0.00,  987.4,    0.1, -999.0
16-01-2023, 00:45:27,     38,    1.1,    0.9,   0.00,   0.00,  987.5,    0.1, -999.0
16-01-2023, 00:45:37,     41,    1.1,    0.9,   0.00,   0.00,  987.5,    0.1, -999.0
16-01-2023, 00:45:47,     41,    0.1,    1.0,   0.00,   0.00,  987.4,    0.0, -999.0
16-01-2023, 00:45:57,     40,    0.0,    0.8,   0.00,   0.00,  987.3,    0.3, -999.0
16-01-2023, 00:46:07,     40,    0.0,    0.7,   0.00,   0.00,  987.3,    0.1, -999.0
16-01-2023, 00:46:17,     41,    0.0,    0.7,   0.00,   0.00,  987.3,    0.2, -999.0
16-01-2023, 00:46:27,     41,    0.0,    0.7,   0.00,   0.00,  987.3,    0.0, -999.0
16-01-2023, 00:46:37,     41,    0.5,    0.8,   0.00,   0.00,  987.5,    0.1, -999.0
16-01-2023, 00:46:47,     40,    0.3,    0.8,   0.00,   0.00,  987.4,    0.2, -999.0